Dallas, TX (75205)

5:03 AM CST on February 10, 2016 (GMT -0600)
AstroGlow | | Change Station
CLOSE
Current Station
Personal Weather Station
Location: Dallas, TX
Elevation: 554 ft
Nearby Weather Stations
Active Advisory: Flood Warning

Elev 554 ft 32.84 °N, 96.79 °W | Updated 4 seconds ago

Clear
Clear
36.6 °F
Feels Like 37 °F
N
0.0
Wind Variable Wind from North
Gusts 0.0 mph

Today
High -- | Low -- °F
--% Chance of Precip.
Yesterday
High -- | Low -- °F
Precip. -- in
Pressure 30.34 in
Visibility 10.0 miles
Clouds Clear
Windchill 37 °F
Dew Point 29 °F
Humidity 73%
Rainfall 0.00 in
Snow Depth Not available.
7:15 AM 6:07 PM
Waxing Crescent, 5% visible
METAR KDAL 101053Z 00000KT 10SM CLR 02/M02 A3034 RMK AO2 SLP272 T00221022
Pressure 30.34 in
Visibility 10.0 miles
Clouds Clear
Windchill 37 °F
Dew Point 29 °F
Humidity 73%
Rainfall 0.00 in
Snow Depth Not available.
7:15 AM 6:07 PM
Waxing Crescent, 5% visible
METAR KDAL 101053Z 00000KT 10SM CLR 02/M02 A3034 RMK AO2 SLP272 T00221022

10-Day Weather Forecast

Almanac

Astronomy

Feb. 10, 2016 Rise Set
Actual Time
Civil Twilight
Nautical Twilight
Astronomical Twilight
Moon
Length of Visible Light
Length of Day
Tomorrow will be .
, % of the Moon is Illuminated

Today's Extremes

State Highs State Lows

Community

WunderPhotos

Upload Photos

1,891,830 photos uploaded!

WunderBlog® & News

Nearby

Air Quality

  Air Quality AQ Index Pollutant
Not available.

Snow Depth

Station Depth Elevation

Earthquake Activity

City Distance Mag. Time & Date
Minimum magnitude displayed is 2.5.

Coastal Water Temperatures

Place Temperature

Stations

Nearby Weather Stations

Station Location Temp. Windchill Dew Point Humidity Wind Precip. Elev Updated Type
                   

Watches & Warnings

Flood Warning
Issued: 6:37 PM CST Feb. 9, 2016 – National Weather Service

The Flood Warning continues for
the Elm Fork Trinity River near Carrollton.
* At 0615 PM Tuesday the stage was 8.35 feet.
* Flood stage is 8 feet.
* Minor flooding is occurring and minor flooding is forecast.
* Forecast... the river will remain near 8.4 feet for the next few
days.


Lat... Lon 3300 9700 3287 9699 3287 9687 3300 9688